Shohruh Shomurodov

Jefe de ojeadores - Lokomotiv
4 Mar 2027
Jueves
Continuar

Personalidad

Adaptabilidad (2) Ambición (1) Controversia (18) Lealtad (11) Presión (11) Profesionalismo (8) Deportividad (15) Temperamento (5)

Perfil

Estilo de dirección Democrático
Licencia Nacional A
Determinación 3
Gestión de personas 8
Motivación 11
Disciplina 6
Satisfacción laboral
86%
Fatiga
0%
Cargo Jefe de ojeadores
Salario 33.1K p/s
Contrato 14.03.2028

Rendimiento

Comportamiento Bueno
Efectividad del entrenamiento
32%
Desarrollo de jugadores
40%
Prevención de lesiones
50%
Implementación táctica
20%

Eventos recientes

Asistió a una reunión de captación ahora
Asistió a una reunión de captación 7d atrás
Recomendó un objetivo de fichaje 7d atrás
Asistió a una reunión de captación 7d atrás
Asistió a una reunión de captación 14d atrás
Recomendó un objetivo de fichaje 14d atrás
Asistió a una reunión de captación 14d atrás
Asistió a una reunión de captación 21d atrás

Actualmente siguiendo

172
Jugador Club Estado Habilidad Confianza Observado Última observación Último voto
Iskandar Shayqulov Shortan Activo 87 / 96 69% 1 11.01.2027 Aprobar
Konstantin Kertanov Chelyabinsk Activo 95 / 79 40% 4 30.12.2026 Observar
Mingiyan Beveev Baltika Activo 108 / 125 40% 1 30.12.2026 -
Vladimir Azarov Sokol Activo 89 / 81 40% 1 30.12.2026 -
Soltmurad Bakaev Rodina Activo 118 / 109 40% 4 29.12.2026 -
Alexandr Yushin Torpedo Moscow Activo 104 / 125 40% 4 29.12.2026 -
Ilja Zhigulev Chernomorets Activo 89 / 83 40% 2 29.12.2026 -
Daniil Kornyushin Shinnik Activo 109 / 112 40% 2 28.12.2026 -
Leo Goglichidze Rodina Activo 108 / 100 40% 2 28.12.2026 -
Edarlyn Reyes Arsenal Tula Activo 113 / 87 40% 5 26.12.2026 -
Artem Makarchuk Sochi Activo 108 / 107 40% 3 26.12.2026 -
Krasian Kolev Chernomorets Activo 99 / 105 40% 5 26.12.2026 -
Alexandr Lomakin Yenisey Activo 89 / 79 40% 1 25.12.2026 -
Fanil Sungatulin Ural Activo 98 / 101 40% 1 25.12.2026 -
Miloš Brnović Arsenal Tula Activo 115 / 133 40% 5 24.12.2026 -
Ilja Berkovskiy Torpedo Moscow Activo 94 / 95 40% 2 24.12.2026 -
Kirill Malyarov Shinnik Activo 103 / 79 40% 1 22.12.2026 -
Alexandr Ektov Nizhniy Novgorod Activo 121 / 127 40% 1 22.12.2026 -
Kirill Danilin Fakel Rechazado 116 / 101 40% 6 21.12.2026 Rechazar
Konstantin Savichev Fakel Activo 112 / 85 40% 2 21.12.2026 -
Aleksa Đurasović Akron Activo 105 / 134 40% 1 21.12.2026 -
Ruslan Fischenko Rodina Activo 101 / 85 40% 2 20.12.2026 -
Vasily Cherov Ufa Activo 106 / 84 40% 2 20.12.2026 -
Darko Todorović Fakel Activo 115 / 102 40% 2 20.12.2026 -
Daniil Penchikov Arsenal Tula Activo 107 / 95 40% 1 18.12.2026 -
Anton Antonov Chernomorets Activo 104 / 78 40% 1 18.12.2026 -
Artem Simonyan Rotor Activo 107 / 88 40% 1 18.12.2026 -
Alexey Vakulich Arsenal Tula Activo 108 / 80 40% 2 16.12.2026 -
Magomed Musalov Neftekhimik Activo 98 / 109 40% 1 16.12.2026 -
Igor Gorbunov Arsenal Tula Activo 98 / 85 40% 1 16.12.2026 -
Iker Pozo Rodina Activo 110 / 111 40% 2 12.12.2026 -
Kyreece Lisbie Colchester United Rechazado 111 / 132 40% 1 12.12.2026 Más información
Vladislav Kamilov Ufa Activo 92 / 91 40% 1 11.12.2026 -
Manuel Keliano Akhmat Grozny Activo 107 / 98 40% 1 10.12.2026 -
Pavel Kireenko Dinamo St Petersburg Activo 100 / 96 40% 3 09.12.2026 -
Valery Tsarukyan Nizhniy Novgorod Activo 90 / 86 40% 1 09.12.2026 -
Migran Ageyan Ufa Activo 105 / 109 40% 1 08.12.2026 -
Charlie Webster Burton Albion Activo 104 / 108 40% 3 07.12.2026 -
Bojan Roganović Torpedo Moscow Activo 94 / 119 40% 1 07.12.2026 -
Andrey Ivlev Nizhniy Novgorod Activo 110 / 136 40% 4 06.12.2026 -
Dmitry Tsypchenko Torpedo Moscow Activo 104 / 101 40% 2 06.12.2026 -
Ramazan Gadjimuradov Chelyabinsk Activo 106 / 89 40% 1 06.12.2026 -
Giorgi Kantaria Neftekhimik Activo 93 / 100 40% 1 05.12.2026 -
Nikolay Giorgobiani Fakel Activo 108 / 103 40% 3 04.12.2026 -
Gilson Benchimol Akron Activo 111 / 100 40% 3 03.12.2026 -
Vladislav Sarveli Nizhniy Novgorod Activo 101 / 88 40% 2 02.12.2026 -
Mohamed Azzi Dinamo Makhachkala Activo 104 / 133 40% 1 02.12.2026 -
Arshak Koryan SKA Khabarovsk Activo 98 / 99 40% 1 02.12.2026 -
Kamran Aliev SKA Khabarovsk Activo 111 / 79 40% 2 01.12.2026 -
Konstantin Shiltsov Baltika Activo 104 / 80 40% 1 30.11.2026 -
Nikolay Titkov Baltika Activo 111 / 106 40% 1 30.11.2026 -
Vladimir Khubulov Dinamo Makhachkala Activo 113 / 112 40% 2 27.11.2026 -
Roman Zobnin Spartak Moscow Activo 123 / 139 40% 2 26.11.2026 -
Jimmy Marín Krylya Sovetov Activo 111 / 96 40% 2 25.11.2026 -
Ivan Churikov Sibir Activo 100 / 99 40% 2 25.11.2026 -
Dmitry Sasin Sokol Activo 96 / 75 40% 1 25.11.2026 -
Nikita Demchenko Spartak Kostroma Activo 94 / 90 40% 2 24.11.2026 -
Maxim Palienko KDV Tomsk Activo 109 / 112 40% 1 23.11.2026 -
Léo Cordeiro Ural Activo 118 / 109 40% 1 23.11.2026 -
Daniil Rodin Leningradets Activo 104 / 106 40% 1 21.11.2026 -
Roman Manuilov KAMAZ Activo 92 / 108 40% 1 20.11.2026 -
Đorđe Pantelić Spartak Kostroma Activo 95 / 104 40% 2 19.11.2026 -
David Karaev KAMAZ Activo 99 / 117 40% 1 19.11.2026 -
Ruslan Baitukov Chelyabinsk Activo 96 / 82 40% 1 18.11.2026 -
Dmitry Rybchinskiy Orenburg Activo 120 / 88 40% 1 18.11.2026 -
Georgy Melkadze Akhmat Grozny Activo 116 / 100 40% 2 17.11.2026 -
Sergey Pryakhin Akhmat Grozny Activo 114 / 104 40% 1 17.11.2026 -
Temirkan Sundukov Dinamo Makhachkala Activo 121 / 125 40% 1 16.11.2026 -
Vyacheslav Yakimov Fakel Activo 118 / 119 40% 1 15.11.2026 -
Batraz Gurtsiev Alania Activo 98 / 100 40% 1 15.11.2026 -
Fahd Moufi Baltika Activo 110 / 98 40% 2 14.11.2026 -
Ilja Safronov Rotor Activo 109 / 106 40% 1 14.11.2026 -
Emircan Gürlük Orenburg Activo 112 / 118 40% 1 13.11.2026 -
Yomar Rocha Akron Activo 90 / 88 40% 2 12.11.2026 -
Khetag Khosonov Akron Activo 116 / 90 40% 1 10.11.2026 -
Nichita Moțpan SKA Khabarovsk Activo 95 / 101 40% 1 10.11.2026 -
Andrey Mazurin Yenisey Activo 104 / 88 40% 1 09.11.2026 -
Oleg Nikiforenko Spartak Kostroma Activo 83 / 83 40% 1 07.11.2026 -
Alexandr Saplinov Volga Activo 109 / 91 40% 1 04.11.2026 -
Konstantin Kuchinskiy Minsk Activo 90 / 106 40% 2 03.11.2026 -
Javohir Sidiqov Kokand 1912 Activo 111 / 92 40% 1 03.11.2026 -
Flamarion Pakhtakor Activo 117 / 97 40% 2 02.11.2026 -
Alexandr Svirepa Isloch Activo 89 / 113 40% 1 02.11.2026 -
Alisher Odilov Neftchi Activo 111 / 96 40% 1 02.11.2026 -
Sherzod Esanov Bukhara Activo 102 / 110 40% 3 01.11.2026 -
Adil Taoui Lokomotiv Sofia Activo 117 / 83 40% 1 01.11.2026 -
Sardor Abduraimov Mashal Activo 92 / 95 40% 1 31.10.2026 -
Karen Vardanyan Dinamo Minsk Activo 100 / 96 40% 1 30.10.2026 -
Xurshid G'iyosov Neftchi Activo 111 / 101 40% 1 30.10.2026 -
Raúl Lozano Quilmes Activo 118 / 103 40% 2 29.10.2026 -
Francisco González Metilli Belgrano Activo 121 / 138 40% 1 29.10.2026 -
Dmitriy Podstrelov Dinamo Minsk Activo 98 / 114 40% 1 29.10.2026 -
Aymane Mourid Baltika Activo 88 / 98 40% 1 28.10.2026 -
Corey O'Keeffe Barnsley Activo 117 / 99 40% 2 27.10.2026 -
Vinícius Lira Santos Activo 115 / 117 40% 1 27.10.2026 -
Aziz Turg'unboyev Pakhtakor Activo 117 / 118 40% 2 26.10.2026 -
Johnly Yfeko Exeter City Activo 105 / 115 40% 1 26.10.2026 -
Manfred Fischer Austria Wien Activo 122 / 113 40% 2 25.10.2026 -
Marcos Cuenca Zaragoza Activo 101 / 118 40% 1 25.10.2026 -
Anton Lukashov Slavia Mozyr Activo 102 / 86 40% 1 25.10.2026 -
Gonzalo Asis Almagro Activo 113 / 99 40% 1 24.10.2026 -
Shahboz Jo'rabekov Bukhara Activo 100 / 103 40% 1 24.10.2026 -
Valentín Depietri Talleres Activo 121 / 120 40% 3 23.10.2026 -
Andrey Solovey Slavia Mozyr Activo 111 / 101 40% 1 23.10.2026 -
Jordan Roberts Stevenage Activo 106 / 100 40% 1 22.10.2026 -
Oleg Evdokimov Neman Activo 88 / 85 40% 1 22.10.2026 -
Daniil Silinskiy Gomel Activo 100 / 103 40% 1 22.10.2026 -
Sergio González Bunyodkor Activo 104 / 112 40% 2 21.10.2026 -
Vadim Pobudey Torpedo-BelAZ Activo 102 / 85 40% 1 21.10.2026 -
Ikromjon Aliboev Neftchi Activo 119 / 102 40% 1 21.10.2026 -
Asadbek Sobirjonov AGMK Activo 106 / 109 40% 5 18.10.2026 -
Suhrob Izzatov Sogdiana Activo 104 / 93 40% 3 18.10.2026 -
Mikhail Schetinin Lokomotiv Moscow Activo 90 / 102 40% 1 18.10.2026 -
Louis Appéré Cambridge United Activo 110 / 111 40% 1 17.10.2026 -
Nikita Razdorskikh Arsenal Tula Activo 102 / 103 40% 1 12.10.2026 -
Mark Helm Fleetwood Town Activo 98 / 102 40% 1 12.10.2026 -
Juan Manuel Vázquez Los Andes Activo 116 / 123 40% 1 12.10.2026 -
Stephen Humphrys Bradford City Activo 110 / 111 40% 1 11.10.2026 -
Roman Paparyga Qizilqum Activo 90 / 97 40% 1 10.10.2026 -
Dudu Aris Thessaloniki Activo 104 / 104 40% 1 09.10.2026 -
Ivan Bašić Astana Activo 103 / 106 40% 1 09.10.2026 -
Maxim Shnaptsev Baltika Activo 99 / 117 40% 2 07.10.2026 -
Tom Pearce Chesterfield Activo 111 / 112 40% 1 07.10.2026 -
Umar Adhamzoda Navbahor Activo 115 / 111 40% 1 07.10.2026 -
Jamshid Boltaboev Borneo Activo 112 / 92 40% 2 06.10.2026 -
Aleksandre Andronikashvili Andijon Activo 111 / 111 40% 1 06.10.2026 -
Otar Kiteishvili Sturm Graz Activo 133 / 111 40% 1 05.10.2026 -
Charles Vernam Grimsby Town Activo 112 / 121 40% 1 05.10.2026 -
Vladislav Yatskevich BATE Activo 97 / 115 40% 2 03.10.2026 -
Yegor Noskov SKA Khabarovsk Activo 107 / 79 40% 1 03.10.2026 -
Siavash Haghnazari AGMK Activo 99 / 105 40% 2 02.10.2026 -
Dostonbek Hamdamov Pakhtakor Activo 114 / 127 40% 1 02.10.2026 -
Aleksandar Boljević Sogdiana Activo 111 / 109 40% 2 01.10.2026 -
Magomedkhabib Abdusalamov Rodina Activo 103 / 84 40% 1 01.10.2026 -
Kirill Pechenin Krylya Sovetov Activo 107 / 121 40% 1 29.09.2026 -
Kirill Kaplenko BATE Activo 89 / 118 40% 2 27.09.2026 -
Kirill Ushatov Rodina Activo 93 / 104 40% 1 27.09.2026 -
Cristian Ramírez Lokomotiv Moscow Activo 104 / 97 40% 1 27.09.2026 -
Lucas Souto Defensa y Justicia Activo 127 / 122 40% 2 25.09.2026 -
Jon Toral Persik Activo 118 / 102 40% 1 25.09.2026 -
Ilja Petrov Baltika Activo 109 / 82 40% 1 24.09.2026 -
Andres Lioi Chaco For Ever Activo 106 / 102 40% 1 24.09.2026 -
Juan Pablo Barinaga Patronato Activo 116 / 96 40% 1 23.09.2026 -
Dominik Begić Bukhara Activo 90 / 91 40% 1 23.09.2026 -
Albek Gongapshev Shinnik Activo 85 / 98 40% 1 23.09.2026 -
Danila Godyaev Lokomotiv Moscow Activo 112 / 92 40% 1 21.09.2026 -
Artem Bandikyan CSKA Moscow Activo 103 / 84 40% 1 21.09.2026 -
Islom Kenjaboyev Qizilqum Activo 102 / 114 40% 1 17.09.2026 -
Dmitry Pletnev Bunyodkor Activo 101 / 95 40% 1 14.09.2026 -
Teddy Teuma Sliema Wanderers Activo 125 / 114 40% 2 13.09.2026 -
Alisher Salimov Kokand 1912 Activo 89 / 94 40% 1 13.09.2026 -
Imad Riahi Nasaf Activo 112 / 99 40% 1 12.09.2026 -
Ljupce Doriev Sogdiana Activo 112 / 122 40% 2 11.09.2026 -
Benjamin Teidi Navbahor Activo 114 / 103 40% 1 11.09.2026 -
Aziz Xolmurodov AGMK Activo 96 / 92 40% 1 10.09.2026 -
Kristian Eriksen Molde Activo 117 / 130 40% 1 09.09.2026 -
Sardor Sobirxo'jaev Pakhtakor Activo 118 / 106 40% 1 08.09.2026 -
Nicolás Linares Gimnasia y Esgrima Activo 118 / 104 40% 1 08.09.2026 -
Jamshid Iskanderov Neftchi Activo 114 / 108 40% 1 08.09.2026 -
Asilbek Jumayev Neftchi Activo 96 / 98 40% 1 25.08.2026 Más información
David Barbona Defensa y Justicia Activo 127 / 127 40% 1 25.08.2026 -
Lautaro Ríos Banfield Activo 113 / 111 40% 1 24.08.2026 -
Alexis Steimbach Gimnasia La Plata Activo 117 / 121 40% 1 23.08.2026 -
Luka Ratković Qizilqum Activo 102 / 112 40% 2 21.08.2026 -
Mateo Aguiar Defensa y Justicia Activo 107 / 131 40% 1 19.08.2026 -
Evgeny Bolotov Orenburg Activo 99 / 87 40% 1 19.08.2026 -
Saidazamat Mirsaidov Navbahor Activo 103 / 93 40% 1 19.08.2026 -
Vladimir Jovović Neftchi Activo 117 / 110 40% 1 18.08.2026 -
Tomás Galván River Plate Activo 120 / 128 40% 1 05.08.2026 -
Quvondiq Ro'ziyev Navbahor Activo 101 / 95 40% 1 05.08.2026 -
Josué Estrada Universitario Activo 118 / 125 40% 1 05.08.2026 -
Carlos Olses Zalgiris Activo 89 / 111 40% 1 02.08.2026 -